Regional Weather Roundup
Issued by NWS

Home | Current Version | Previous Version | Graphics & Text | Print | Product List | Glossary Off
Versions: 1 2 3 4 5 6 7 8 9 10 11 12 13 14 15 16 17 18 19 20 21 22 23 24 25 26 27 28 29 30 31 32 33 34 35 36 37 38 39 40 41 42 43 44 45 46 47 48 49 50

000
ASUS43 KMKX 170821
RWRWI

WISCONSIN REGIONAL WEATHER ROUNDUP
NATIONAL WEATHER SERVICE MILWAUKEE/SULLIVAN WI
300 AM CDT WED SEP 17 2014

NOTE: "FAIR" INDICATES FEW OR NO CLOUDS BELOW 12,000 FEET WITH NO
SIGNIFICANT WEATHER AND/OR OBSTRUCTIONS TO VISIBILITY.

WIZ001-002-006>008-014>016-023>028-170900-
NORTHWEST WISCONSIN

CITY           SKY/WX    TMP DP  RH WIND       PRES   REMARKS
SUPERIOR ARPT  CLEAR     41  41  98 N3        29.95R
ASHLAND        CLEAR     46  42  86 SW6       29.95F
HAYWARD        CLEAR     38  37  97 CALM      29.98F
SIREN          CLEAR     43  40  92 CALM      29.97F
RICE LAKE      FOG       41  40  97 CALM      30.01S VSB<1/4
LADYSMITH      CLEAR     41  40  95 CALM      30.01F
EAU CLAIRE     CLEAR     42  40  92 CALM      30.00S
MENOMONIE      SUNNY     44  43  97 CALM      30.00F
NEW RICHMOND   MOCLDY    48  44  85 SE5       29.98F
OSCEOLA        CLOUDY    48  48 100 CALM      30.00F
$$

WIZ003>005-009-010-017-018-170900-
NORTH CENTRAL WISCONSIN

CITY           SKY/WX    TMP DP  RH WIND       PRES   REMARKS
WOODRUFF       PTCLDY    42  39  92 CALM      29.98F
RHINELANDER    CLEAR     42  40  92 CALM      30.00F
EAGLE RIVER    PTCLDY    41  41 100 CALM      29.97F
LAND O LAKES   CLOUDY    49  43  79 CALM      29.97F
PHILLIPS       CLEAR     39  38  96 CALM      29.99F
TOMAHAWK       CLEAR     35  34  96 CALM      30.01S
MEDFORD        FOG       38  38  99 S5        30.01F VSB 1   WCI  34
MERRILL        MOCLDY    36  35  98 CALM      30.01F
$$

WIZ029-030-035-036-043>047-170900-
CENTRAL WISCONSIN

CITY           SKY/WX    TMP DP  RH WIND       PRES   REMARKS
WAUSAU         CLEAR     43  42  97 E3        30.01F
MOSINEE        CLEAR     41  41 100 CALM      30.03F
MARSHFIELD     CLEAR     43  41  93 CALM      30.02F
STEVENS POINT  CLEAR     37  36  95 CALM      30.03F
WAUPACA        CLEAR     42  41  95 CALM      30.03F
WAUTOMA        CLEAR     38  37  96 CALM      30.04F
WISC RAPIDS    CLEAR     40  39  97 CALM      30.03F FOG
CAMP DOUGLAS   CLEAR     40  40 100 E3        30.02F
$$

WIZ011>013-019>022-031-037>040-048>050-170900-
NORTHEAST WISCONSIN

CITY           SKY/WX    TMP DP  RH WIND       PRES   REMARKS
ANTIGO         CLEAR     39  38  99 CALM      30.02S
STURGEON BAY   CLEAR     48  45  87 SW6       30.01S
GREEN BAY      CLEAR     44  42  93 SW3       30.02F
MANITOWOC      CLEAR     49  45  86 W3        30.03F
APPLETON       NOT AVBL
CLINTONVILLE   CLEAR     41  39  93 CALM      30.02F
OSHKOSH        CLEAR     48  43  82 SW5       30.03F
$$

WIZ032>034-041-042-053>061-170900-
SOUTHWEST WISCONSIN

CITY           SKY/WX    TMP DP  RH WIND       PRES   REMARKS
LA CROSSE      PTCLDY    48  45  89 SE6       30.02F
SPARTA         CLOUDY    36  36  99 CALM      30.03F
VIROQUA        FAIR      48  44  84 S5        30.03F
BOSCOBEL       FOG       47  45  93 CALM      30.05F VSB 1/4
PRAIRIE DU CHI CLEAR     44  43  95 CALM      30.04S
PLATTEVILLE    FAIR      47  44  88 CALM      30.05F
$$

WIZ056-057-062-063-064-067-068-170900-
SOUTH CENTRAL WISCONSIN

CITY           SKY/WX    TMP DP  RH WIND       PRES   REMARKS
BARABOO/DELLS  CLEAR     43  41  93 CALM      30.04F
LONE ROCK      FOG       45  41  86 CALM      30.05F VSB 1/4
WATERTOWN      CLEAR     40  40 100 CALM      30.05F
MADISON        CLEAR     42  41  96 CALM      30.05F
MIDDLETON        N/A     40  40 100 CALM      30.05F VSB 1
MONROE         CLEAR     48  43  81 SW7       30.05F
JANESVILLE     CLEAR     43  41  93 CALM      30.06S
$$

WIZ051-052-058>065-066-070>072-170900-
SOUTHEAST WISCONSIN

CITY           SKY/WX    TMP DP  RH WIND       PRES   REMARKS
MILWAUKEE      CLEAR     49  45  86 CALM      30.06F
WAUKESHA       CLEAR     45  43  93 SW6       30.06S
MILWAUKEE/TIMM CLEAR     43  41  93 CALM      30.06S
RACINE         CLEAR     50  46  86 SW7       30.07F
BURLINGTON     FOG       36  36 100 CALM      30.06F VSB 1/2
KENOSHA        CLEAR     45  44  97 SW3       30.06F
FOND DU LAC    CLEAR     43  40  89 S5        30.04F
SHEBOYGAN      CLEAR     43  41  93 CALM      30.04F
WEST BEND      CLEAR     39  37  93 CALM      30.05S
JUNEAU         CLEAR     43  41  94 CALM      30.06F
$$

LSZ147-162-170900-
LAKE SUPERIOR

STATION/POSITION TIME  TEMP    WIND        PRES    WAVE
                       AIR SEA DIR/SP/G            HT/PER
                 (UTC) (F)     (DEG/KT/KT) (MB)    (FT/S)
W MID LAKE BUOY  0750   48 47  120/  6/  6 1013.2F   2/ 4
DEVILS ISLAND    0800   50      CALM  /  1 1013.9F
PORT WING        0740   55     340/  4/  8 1014.6S
SAXON HARBOR     0740   55     190/  6/  9 1014.2S
$$

LMZ867-665-643>646-170900-
LAKE MICHIGAN

STATION/POSITION TIME  TEMP    WIND        PRES    WAVE
                       AIR SEA DIR/SP/G            HT/PER
                 (UTC) (F)     (DEG/KT/KT) (MB)    (FT/S)
N MID LAKE BUOY  0750   57 58  270/ 10/ 14 1015.2F   2/ 5
NORTHPORT PIER   0800   55     280/  4/  9 1015.2F
KEWAUNEE LAKESHO 0700   50     290/  4/  5 1015.7S
SHEBOYGAN LAKESH 0800   50 51  250/  9/  9 1017.6F
PORT WASHINGTON  0740   50     270/  5/  6 1017.9F
ATWATER BUOY     0800   56     230/  8/ 10 1018.5F
MILWAUKEE LAKESH 0800   54     240/  8/  9   N/A
S MID LAKE BUOY  0750   61 64  220/  6/  8 1018.0F   0
KENOSHA   LAKESH 0800   53     250/  8/  9 1017.9S
$$

TC  - TEMPERATURE IN CELSIUS
VSB - VISIBILITY IN STATUTE MILES
WCI - WIND CHILL INDEX
HX  - HEAT INDEX



USA.gov is the U.S. government's official web portal to all federal, state and local government web resources and services.